Location: Fort Worth, Tx
(32.7431°N, 97.3695°W)
Time: 10:32:30
(UTC-04:00)

Explorer 11/Cluster Stage 4 - Pass Details

Date: 29 February 2024
Orbit: 465 x 1219 km, 28.8° (Epoch: 24 April)

Event Time Altitude Azimuth Distance (km) Brightness Sun altitude
Exits shadow 07:15:44 - 247° (WSW) 3,026 9.0 -9.6°
Reaches altitude 10° 07:16:53 10° 239° (WSW) 2,807 8.9 -9.4°
Maximum altitude 07:19:37 13° 216° (SW) 2,506 8.9 -8.8°
Drops below altitude 10° 07:22:11 10° 191° (SSW) 2,583 9.2 -8.3°
Sets 07:26:13 0° 163° (SSE) 3,323 10.1 -7.4°
